Location: Caltech
(34.1382°N, 118.1253°W)
Time: 04:48:00
(UTC-07:00)

Oscar 19 - Visible Passes

Search period start: 04 July 2015 00:00
Search period end: 14 July 2015 00:00
Orbit: 773 x 792 km, 98.5° (Epoch: 03 July)

Date Brightness Start Highest point End Pass type
(mag) Time Alt. Az. Time Alt. Az. Time Alt. Az.
04 Jul 13.0 01:09:56 10° ENE 01:11:22 13° ENE 01:11:22 13° ENE visible
04 Jul 10.9 02:47:11 10° N 02:51:56 54° WNW 02:51:56 54° WNW visible
05 Jul 11.0 02:15:24 10° NNE 02:19:48 61° NE 02:19:48 61° NE visible
05 Jul 12.7 03:57:25 10° NW 03:59:22 12° WNW 04:00:22 11° WNW visible
06 Jul 12.0 01:44:08 10° NNE 01:47:40 30° ENE 01:47:40 30° ENE visible
06 Jul 12.0 03:23:48 10° NNW 03:27:55 24° WNW 03:28:14 24° WNW visible
07 Jul 12.9 01:13:46 10° ENE 01:15:32 14° ENE 01:15:32 14° ENE visible
07 Jul 11.1 02:51:26 10° N 02:56:06 49° WNW 02:56:06 49° WNW visible
08 Jul 10.9 02:19:35 10° NNE 02:23:57 64° NE 02:23:57 64° NE visible
08 Jul 12.8 04:02:19 10° NW 04:03:31 11° WNW 04:04:22 10° WNW visible
09 Jul 12.0 01:48:14 10° NNE 01:51:49 33° ENE 01:51:49 33° ENE visible
09 Jul 12.1 03:28:08 10° NNW 03:32:05 22° WNW 03:32:23 22° WNW visible
10 Jul 12.9 01:17:41 10° NE 01:19:41 16° ENE 01:19:41 16° ENE visible
10 Jul 11.2 02:55:41 10° N 03:00:15 44° WNW 03:00:15 44° WNW visible
11 Jul 10.9 02:23:46 10° NNE 02:28:06 64° NNE 02:28:06 64° NNE visible
12 Jul 11.9 01:52:20 10° NNE 01:55:58 35° ENE 01:55:58 35° ENE visible
12 Jul 12.2 03:32:30 10° NNW 03:36:15 20° WNW 03:36:31 20° WNW visible
13 Jul 12.8 01:21:38 10° NE 01:23:49 17° ENE 01:23:49 17° ENE visible
13 Jul 11.4 02:59:56 10° N 03:04:23 40° WNW 03:04:23 40° WNW visible
